Regional Weather Roundup
Issued by NWS

Home | Current Version | Previous Version | Graphics & Text | Print | Product List | Glossary On
Versions: 1 2 3 4 5 6 7 8 9 10 11 12 13 14 15 16 17 18 19 20 21 22 23 24 25 26 27 28 29 30 31 32 33 34 35 36 37 38 39 40 41 42 43 44 45 46 47 48 49 50
000
ASUS45 KCYS 270310
RWRWY

WYOMING REGIONAL WEATHER ROUNDUP
NATIONAL WEATHER SERVICE CHEYENNE WY
900 PM MDT WED JUL 26 2017

NOTE:  "FAIR" INDICATES FEW OR NO CLOUDS BELOW 12,000 FEET
WITH NO SIGNIFICANT WEATHER AND/OR OBSTRUCTIONS TO VISIBILITY.

WYZ001-270400-
YELLOWSTONE NATIONAL PARK

CITY           SKY/WX    TMP DP  RH WIND       PRES   REMARKS
LK YELLOWSTONE   N/A     57  52  83 CALM      30.39S
W YELLOWSTONE  NOT AVBL

$$
WYZ002>013-054>058-071-098>099-270400-
NORTHERN WYOMING

CITY           SKY/WX    TMP DP  RH WIND       PRES   REMARKS
JACKSON        FAIR      66  57  72 CALM      30.28R
CODY           CLOUDY    74  52  46 SW8       30.16R
GREYBULL       FAIR      80  54  40 NW7       30.04S
WORLAND        FAIR      76  55  48 SE10      30.09R
SHERIDAN       FAIR      75  54  47 SE9       30.08R
BUFFALO        FAIR      67  55  65 SW23      30.19S
GILLETTE       FAIR      75  51  43 S12       30.16S
HULETT         FAIR      72  54  53 S8        30.18R
NEWCASTLE      FAIR      70  46  43 E8        30.20R

$$
WYZ014>020-022>026-101>103-270400-
CENTRAL WYOMING

CITY           SKY/WX    TMP DP  RH WIND       PRES   REMARKS
BIG PINEY      FAIR      65  54  67 W3        30.32R
PINEDALE       FAIR      63  46  55 CALM      30.33R
DUBOIS         MOCLDY    63  45  51 N3        30.31R
LANDER         FAIR      69  52  54 NE7       30.20R
RIVERTON       FAIR      73  55  53 S6        30.19R
CASPER         LGT RAIN  66  60  81 S20       30.21R
DOUGLAS        FAIR      70  55  59 SE12      30.24R

$$
WYZ021-027>030-104>119-270400-
SOUTHERN WYOMING

CITY           SKY/WX    TMP DP  RH WIND       PRES   REMARKS
EVANSTON       FAIR      68  51  54 W9        30.32R
KEMMERER         N/A     64  50  59 NW10      30.35R
FORT BRIDGER   MOCLDY    69  54  58 SE3       30.34R
ROCK SPRINGS   FAIR      65  57  75 S5        30.30R
RAWLINS        MOCLDY    65  55  70 E5        30.33R
LARAMIE        CLOUDY    59  57  93 SE8       30.38R
CHEYENNE       CLOUDY    68  56  65 NE5       30.33R
TORRINGTON     FAIR      72  58  61 E7        30.19R
PINE BLUFFS    FAIR      70  55  60 NE5       30.27R

$$



USA.gov is the U.S. government's official web portal to all federal, state and local government web resources and services.